GW5164 Weather Reports


time (UTC)temp
F
wind
direction
speed
knots
gust
knots
rain 1hr
in
rain 24hr
in
rain mn
in
humidity
%
barometer
mb
20260505101559 45 0 0.0 0.0 0.00 0.00 0.00 87 1015.4
20260505100057 45 312 0.0 0.0 0.00 0.00 0.00 87 1015.5
20260505094607 45 0 0.0 0.0 0.00 0.00 0.00 86 1015.5
20260505093100 46 0 0.0 1.7 0.00 0.00 0.00 86 1015.4
20260505091604 46 0 0.0 0.0 0.00 0.00 0.00 85 1015.3
20260505090105 47 0 0.0 2.6 0.00 0.00 0.00 84 1015.2
20260505084559 47 0 0.0 0.9 0.00 0.00 0.00 84 1014.9
20260505083101 46 243 0.0 0.9 0.00 0.00 0.00 85 1014.5
20260505081600 47 0 0.0 1.7 0.00 0.00 0.00 83 1014.6
20260505080057 47 276 0.9 2.6 0.00 0.00 0.00 82 1014.5
20260505074557 48 324 0.0 2.6 0.00 0.00 0.00 81 1014.3
20260505073058 48 0 0.9 4.3 0.00 0.00 0.00 82 1014.2
20260505071557 49 122 0.0 0.9 0.00 0.00 0.00 79 1014.1
20260505070059 49 305 0.9 2.6 0.00 0.00 0.00 79 1013.9
20260505064557 50 279 0.0 0.9 0.00 0.00 0.00 77 1014.1
20260505063100 51 304 0.9 1.7 0.00 0.00 0.00 76 1014.2
20260505061559 51 0 0.0 1.7 0.00 0.00 0.00 76 1014.2
20260505060104 51 288 0.9 2.6 0.00 0.00 0.00 75 1014.3
20260505054559 52 313 1.7 2.6 0.00 0.00 0.00 73 1014.3
20260505053056 53 284 0.0 1.7 0.00 0.00 0.00 71 1014.3
20260505051556 51 288 0.0 1.7 0.00 0.00 0.00 77 1014.3
20260505041554 52 0 0.0 0.9 0.00 0.00 0.00 73 1014.2
20260505040103 53 313 0.0 0.9 0.00 0.00 0.00 74 1014.3
20260505034554 53 0 0.0 0.9 0.00 0.00 0.00 73 1014.6
20260505033056 54 313 0.0 0.9 0.00 0.00 0.00 72 1014.5
20260505031602 55 320 0.0 0.0 0.00 0.00 0.00 70 1014.7
20260505024558 56 308 0.0 0.9 0.00 0.00 0.00 67 1014.7
20260505023058 57 0 0.0 1.7 0.00 0.00 0.00 65 1014.7
20260505021557 58 0 0.0 0.9 0.00 0.00 0.00 63 1014.5
20260505020104 59 321 0.0 1.7 0.00 0.00 0.00 61 1014.5
20260505014605 60 323 0.0 0.9 0.00 0.00 0.00 59 1014.4
20260505013057 61 319 0.0 1.7 0.00 0.00 0.00 57 1014.2
20260505011553 63 294 0.0 1.7 0.00 0.00 0.00 52 1014.1
20260505010057 66 0 0.0 0.9 0.00 0.00 0.00 44 1013.9
20260505004558 67 0 0.0 0.9 0.00 0.00 0.00 43 1013.8
20260505003055 68 113 0.0 1.7 0.00 0.00 0.00 41 1013.6
20260505001554 70 149 0.9 3.5 0.00 0.00 0.00 40 1013.4
20260505000057 71 236 0.0 3.5 0.00 0.00 0.00 38 1013.4
20260504234555 72 213 1.7 7.8 0.00 0.00 0.00 37 1013.2
20260504233056 74 141 2.6 6.1 0.00 0.00 0.00 35 1013.1
20260504231558 75 149 3.5 9.6 0.00 0.00 0.00 34 1012.9
20260504230055 75 220 3.5 8.7 0.00 0.00 0.00 34 1013.0
20260504224554 76 114 1.7 7.8 0.00 0.00 0.00 32 1013.0
20260504223055 76 215 2.6 9.6 0.00 0.00 0.00 32 1012.9
20260504221553 76 190 3.5 11.3 0.00 0.00 0.00 32 1012.8
20260504220054 77 185 3.5 7.8 0.00 0.00 0.00 32 1012.9
20260504214604 77 125 5.2 10.4 0.00 0.00 0.00 33 1012.9
20260504213056 77 263 2.6 11.3 0.00 0.00 0.00 33 1012.9
20260504211556 76 217 6.1 11.3 0.00 0.00 0.00 35 1013.0
20260504210104 77 161 3.5 7.8 0.00 0.00 0.00 34 1013.1
20260504204611 76 121 4.3 13.9 0.00 0.00 0.00 36 1013.2
20260504203134 77 187 1.7 10.4 0.00 0.00 0.00 34 1013.2
20260504201556 77 217 0.9 9.6 0.00 0.00 0.00 35 1013.4
20260504200057 77 143 4.3 9.6 0.00 0.00 0.00 34 1013.5
20260504194555 77 120 2.6 10.4 0.00 0.00 0.00 35 1013.7
20260504193052 78 157 2.6 8.7 0.00 0.00 0.00 32 1014.0
20260504191558 75 167 6.1 12.2 0.00 0.00 0.00 34 1014.2
20260504190056 76 277 3.5 10.4 0.00 0.00 0.00 34 1014.4
20260504184559 76 124 2.6 8.7 0.00 0.00 0.00 36 1014.5
20260504183103 76 198 4.3 8.7 0.00 0.00 0.00 34 1014.6
20260504181553 75 129 6.1 9.6 0.00 0.00 0.00 36 1014.9
20260504180113 76 269 2.6 6.1 0.00 0.00 0.00 35 1015.0
20260504174556 74 205 2.6 9.6 0.00 0.00 0.00 37 1015.2
20260504173107 73 159 6.1 12.2 0.00 0.00 0.00 38 1015.2
20260504171605 74 132 3.5 7.8 0.00 0.00 0.00 37 1015.2